Regional Weather Roundup
Issued by NWS Kansas City/Pleasant Hill, MO

Home | Current Version | Previous Version | Text Only | Print | Product List | Glossary On
Versions: 1 2 3 4 5 6 7 8 9 10 11 12 13 14 15 16 17 18 19 20 21 22 23 24 25 26 27
000
ASUS43 KEAX 241810
RWREAX

WEATHER ROUNDUP FOR EASTERN KANSAS AND NORTHWEST MISSOURI
NATIONAL WEATHER SERVICE KANSAS CITY/PLEASANT HILL MO
100 PM CDT WED MAY 24 2017

KSZ040-057-103>105-MOZ028-029-037-043-241900-
...KANSAS CITY METROPOLITAN AREA...

CITY           SKY/WX    TMP DP  RH WIND       PRES   REMARKS
K.C. INTL      CLOUDY    61  49  64 N14       29.69F
6HR MIN TEMP:  50; 6HR MAX TEMP:  61; 6HR PCP: TRACE;

K.C. DOWNTOWN  CLOUDY    62  49  62 N10G20    29.68F
6HR MIN TEMP:  51; 6HR MAX TEMP:  63; 6HR PCP: TRACE;

LEES SUMMIT    CLOUDY    58  51  78 N9        29.69S
6HR MIN TEMP:  49; 6HR MAX TEMP:  58; 6HR PCP:  0.01;

OLATHE - IXD   CLOUDY    60  48  64 N18       29.71S
6HR MIN TEMP:  49; 6HR MAX TEMP:  61;

OLATHE - OJC   PTSUNNY   60  49  66 N17G23    29.69F
6HR MIN TEMP:  48; 6HR MAX TEMP:  61;

LAWRENCE       PTSUNNY   66  52  60 NW17      29.70F

$$

MOZ001>008-011>017-020>025-030>033-038>040-044>046-053-054-241900-
...NORTHERN AND CENTRAL MISSOURI...

CITY           SKY/WX    TMP DP  RH WIND       PRES   REMARKS
ST. JOSEPH     CLOUDY    63  50  62 N15       29.70F
6HR MIN TEMP:  51; 6HR MAX TEMP:  63;

WARRENSBURG    CLOUDY    57  52  82 NW7       29.67S
WHITEMAN AFB   PTSUNNY   57  57 100 N9        29.65F
6HR MIN TEMP:  49; 6HR MAX TEMP:  58; 6HR PCP:  0.04;

CLINTON        PTSUNNY   57  50  77 NW7       29.68S
SEDALIA        PTSUNNY   62  52  69 NW10      29.66F
6HR MIN TEMP:  50; 6HR MAX TEMP:  62; 6HR PCP: TRACE;

WARSAW         NOT AVBL
CHILLICOTHE      N/A     64  52  64 N8        29.66F
6HR MIN TEMP:  49; 6HR MAX TEMP:  64;

KIRKSVILLE     CLOUDY    62  49  62 N12       29.63F
6HR MIN TEMP:  47; 6HR MAX TEMP:  64;


$$

MOZ041-047>049-056>058-063>065-088>090-097-241900-
...EASTERN AND SOUTHERN MISSOURI...

CITY           SKY/WX    TMP DP  RH WIND       PRES   REMARKS
ST. LOUIS INTL PTSUNNY   69  49  48 NW10      29.58S
6HR MIN TEMP:  55; 6HR MAX TEMP:  69;

SPIRIT OF STL  PTSUNNY   64  48  56 N10       29.57F
COLUMBIA       CLOUDY    61  50  67 NW13      29.64S
JEFFERSON CITY PTSUNNY   62  47  57 NW14      29.63S
ROLLA          LGT RAIN  57  49  74 W12       29.62R
OSAGE BEACH    CLOUDY    57  50  77 W6        29.65F
SPRINGFIELD    CLOUDY    57  46  66 NW10G18   29.67F
BRANSON        CLOUDY    57  45  62 NW6G16    29.69S
JOPLIN         CLOUDY    63  49  60 NW15G21   29.72S
WEST PLAINS    CLOUDY    61  45  55 NW17G25   29.64S

$$

IAZ060-094-KSZ022-034>040-054-083-096-NEZ052-066-093-241900-
...KANSAS...SOUTHEAST NEBRASKA AND IOWA...

CITY           SKY/WX    TMP DP  RH WIND       PRES   REMARKS
TOPEKA         PTSUNNY   64  49  57 N16G24    29.71F
6HR MIN TEMP:  49; 6HR MAX TEMP:  67;

MANHATTAN      CLOUDY    63  46  54 NW8       29.75F
EMPORIA        CLOUDY    62  46  55 N8G17     29.74F
CHANUTE        MOSUNNY   66  48  52 N14G22    29.73S
WICHITA        PTSUNNY   62  44  51 NW14G20   29.79F
OMAHA          MOSUNNY   64  46  52 NW12G21   29.72F
LINCOLN        MOSUNNY   63  44  50 N12       29.75F
FALLS CITY     PTSUNNY   63  48  58 N16G23    29.71F
LAMONI         CLOUDY    60  52  74 N14       29.67F
DES MOINES     CLOUDY    58  50  75 N10       29.69S

$$





USA.gov is the U.S. government's official web portal to all federal, state and local government web resources and services.